Flag for Poland Weather past 2 weeks in Rzeszów, Poland

37 °F

Sprinkles. Passing clouds.

Feels Like: 29 °F
Forecast: 36 / 44 °F
Wind: 13 mph from Southwest

Location: Rzeszow-Jasionka

Current Time: Nov 30, 2015 at 3:51:34 AM

Latest Report: Nov 30, 2015 at 3:30 AM

Visibility: N/A

Pressure: 29.80 "Hg

Humidity: 87%

Dew point: 34 °F

Location of RzeszówLocation

Historic Weather in Rzeszów — Graph


Rzeszów temperature yesterday

Maximum temperature yesterday: 41 °F (at 12:30 PM)
Minimum temperature yesterday: 32 °F (at 12:00 AM)
Average temperature yesterday: 37 °F

Past Weeks' High & Low Weather Summary

High55 °F (Nov 18, 10:00 AM)100% (Nov 15, 9:00 PM)30.33 "Hg (Nov 15, 9:00 PM)
Low21 °F (Nov 25, 3:30 AM)60% (Nov 25, 12:00 PM)29.33 "Hg (Nov 21, 3:00 AM)
Average38 °F90%29.85 "Hg
* Reported Nov 15 2:00 AM — Nov 30 2:00 AM, Rzeszów, Weather by CustomWeather, © 2015

Note: Actual official high and low records may vary slightly from our data, if they occured in-between our weather recording intervals... More about our weather records


Rzeszów weather history for previous 24 hours

Time TempWeatherWind HumidityBarometerVisibility
2:00 AM
Mon, Nov 30
37 °FOvercast.15 mph81%29.83 "HgN/A
1:30 AM37 °FOvercast.14 mph81%29.86 "HgN/A
1:00 AM37 °FOvercast.14 mph81%29.86 "HgN/A
11:30 PM
Sun, Nov 29
37 °FOvercast.14 mph81%29.89 "HgN/A
11:00 PM37 °FOvercast.14 mph81%29.89 "HgN/A
10:30 PM37 °FOvercast.15 mph81%29.89 "HgN/A
10:00 PM37 °FOvercast.13 mph81%29.89 "HgN/A
9:30 PM37 °FPassing clouds.10 mph81%29.92 "HgN/A
9:00 PM37 °FClear.13 mph81%29.92 "Hg10 mi
8:30 PM37 °FPassing clouds.13 mph81%29.92 "HgN/A
8:00 PM37 °FPassing clouds.13 mph81%29.92 "HgN/A
7:30 PM37 °FPassing clouds.12 mph81%29.92 "HgN/A
7:00 PM37 °FPassing clouds.13 mph81%29.92 "HgN/A
6:30 PM37 °FPassing clouds.13 mph81%29.92 "HgN/A
6:00 PM37 °FOvercast.12 mph81%29.92 "HgN/A
5:30 PM37 °FOvercast.10 mph81%29.92 "HgN/A
5:00 PM37 °FOvercast.12 mph81%29.92 "HgN/A
4:30 PM39 °FPassing clouds.14 mph75%29.92 "HgN/A
4:00 PM39 °FPassing clouds.10 mph75%29.92 "HgN/A
3:30 PM39 °FPartly sunny.6 mph70%29.92 "HgN/A
3:00 PM39 °FSunny.8 mph70%29.92 "Hg10 mi
2:30 PM41 °FSunny.9 mph66%29.92 "Hg10 mi
2:00 PM41 °FSunny.9 mph66%29.92 "Hg10 mi
1:30 PM41 °FSunny.12 mph70%29.92 "Hg10 mi
1:00 PM41 °FSunny.14 mph66%29.92 "Hg10 mi
12:30 PM41 °FSunny.10 mph70%29.92 "Hg10 mi
12:00 PM39 °FSunny.12 mph75%29.95 "Hg10 mi
11:30 AM39 °FSunny.10 mph81%29.95 "Hg10 mi
10:30 AM37 °FSunny.10 mph87%29.98 "Hg10 mi
10:00 AM36 °FSunny.13 mph93%29.98 "Hg10 mi
9:30 AM36 °FPassing clouds.12 mph93%29.98 "HgN/A
9:00 AM36 °FPassing clouds.10 mph93%29.98 "HgN/A
7:30 AM34 °FPartly sunny.13 mph100%29.98 "Hg5 mi
6:00 AM34 °FLight rain. Fog.12 mph100%29.95 "Hg2 mi
5:30 AM34 °FLight rain. Fog.13 mph100%29.95 "Hg2 mi
5:00 AM34 °FLight snow. Fog.10 mph93%29.95 "Hg2 mi
4:30 AM34 °FLight snow. Fog.13 mph100%29.95 "Hg2 mi
4:00 AM34 °FLight snow. Fog.12 mph93%29.92 "Hg1 mi
3:30 AM34 °FLight snow. Fog.13 mph93%29.92 "Hg2 mi
3:00 AM34 °FLight snow. Fog.12 mph93%29.92 "Hg2 mi
Weather by CustomWeather, © 2015

See weather overviewHow to use our weather pages